Flag for U.S.A. Weather past 2 weeks in Providence, Rhode Island, U.S.A.

Now
36 °F

Partly sunny.


Feels Like: 28 °F
Forecast: 27 / 39 °F
Wind: 10 mph from Northwest

Location: Green State Airport

Current Time: Dec 19, 2014 at 9:24:09 AM

Latest Report: Dec 19, 2014 at 8:51 AM


Visibility: 10 mi

Pressure: 29.95 "Hg

Humidity: 59%

Dew point: 23 °F

Location of ProvidenceLocation

Historic Weather in Providence — Graph

°F

Providence temperature yesterday

Maximum temperature yesterday: 43 °F (at 10:51 AM)
Minimum temperature yesterday: 34 °F (at 9:51 PM)
Average temperature yesterday: 39 °F

Past Weeks' High & Low Weather Summary

 TemperatureHumidityPressure
High51 °F (Dec 17, 1:51 PM)97% (Dec 5, 11:59 PM)30.73 "Hg (Dec 5, 11:59 PM)
Low21 °F (Dec 8, 3:51 AM)35% (Dec 4, 12:51 PM)29.43 "Hg (Dec 10, 6:51 PM)
Average37 °F75%30.02 "Hg
* Reported Dec 4 7:51 AM — Dec 19 7:51 AM, Providence, Weather by CustomWeather, © 2014

Note: Actual official high and low records may vary slightly from our data, if they occured in-between our weather recording intervals... More about our weather records

Advertising

Providence weather history for previous 24 hours

 ConditionsComfort  
Time TempWeatherWind HumidityBarometerVisibility
7:51 AM
Dec 19
35 °FPartly sunny.13 mph64%29.94 "Hg10 mi
6:51 AM34 °FPassing clouds.8 mph64%29.92 "Hg10 mi
5:51 AM34 °FPassing clouds.9 mph70%29.90 "Hg10 mi
4:51 AM33 °FClear.8 mph72%29.90 "Hg10 mi
3:51 AM35 °FOvercast.8 mph67%29.89 "Hg10 mi
2:51 AM35 °FOvercast.8 mph67%29.90 "Hg10 mi
1:51 AM35 °FOvercast.8 mph70%29.89 "Hg10 mi
12:51 AM35 °FPassing clouds.9 mph70%29.89 "Hg10 mi
11:51 PM
Dec 18
37 °FOvercast.8 mph65%29.89 "Hg10 mi
10:51 PM36 °FOvercast.5 mph67%29.89 "Hg10 mi
9:51 PM34 °FPassing clouds.5 mph73%29.88 "Hg10 mi
8:51 PM36 °FPassing clouds.3 mph67%29.88 "Hg10 mi
7:51 PM37 °FPassing clouds.9 mph65%29.87 "Hg10 mi
6:51 PM38 °FOvercast.9 mph63%29.89 "Hg10 mi
5:51 PM38 °FOvercast.12 mph63%29.87 "Hg10 mi
4:51 PM39 °FPassing clouds.8 mph60%29.85 "Hg10 mi
3:51 PM41 °FPartly sunny.12 mph58%29.83 "Hg10 mi
2:51 PM41 °FPartly sunny.16 mph58%29.82 "Hg10 mi
1:51 PM42 °FPartly sunny.13 mph55%29.80 "Hg10 mi
12:51 PM42 °FPartly sunny.N/A55%29.80 "Hg10 mi
11:51 AM42 °FPartly sunny.16 mph55%29.82 "Hg10 mi
10:51 AM43 °FScattered clouds.20 mph51%29.82 "Hg10 mi
9:51 AM42 °FScattered clouds.14 mph55%29.83 "Hg10 mi
Weather by CustomWeather, © 2014

See weather overviewHow to use our weather pages